Location: Casteau
(50.5142°N, 4.0161°E)
Time: 01:49:23
(UTC+00:00)

Explorer 11/Cluster Stage 4 - Pass Details

Date: 07 August 2021
Orbit: 467 x 1257 km, 28.8° (Epoch: 18 September)

Event Time Altitude Azimuth Distance (km) Brightness Sun altitude
Rises 06:56:17 0° 215° (SW) 3,704 9.7 23.1°
Reaches altitude 10° 07:01:17 10° 184° (S) 2,949 9.6 23.9°
Maximum altitude 07:03:20 11° 167° (SSE) 2,919 9.8 24.2°
Drops below altitude 10° 07:05:27 10° 151° (SSE) 3,076 10.2 24.5°
Sets 07:11:04 0° 121° (ESE) 4,155 11.3 25.4°
